Tracking 35331 objects as of 15-Sep-2026
HD Live streaming from Space Station
objects crossing your sky now

COSMOS 554 DEB


COSMOS 554 DEB is no longer on orbit


NORAD ID: 6477
Int'l Code: 1973-021AL
Launch date: April 19, 1973
Source: Commonwealth of Independent States (former USSR) (CIS)
Launch site: PLESETSK MISSILE AND SPACE COMPLEX (PKMTR)
Decay date: 1973-05-16

Note: This is SATELLITE DEBRIS
Your satellite tracking list
Your tracking list is empty




NASA's NSSDC Master Catalog

Two Line Element Set (TLE):
1 06477U 73021 AL 73133.84572139 -.24175144 +11712-0 +00000-0 0  9994
2 06477 072.5948 284.2952 0125568 326.4616 032.8659 16.09124856003938
Source of the keplerian elements: AFSPC